When you browse on this site, cookies collect data to enhance your experience and personalize the content and advertising you see.
Visit our Privacy Policy to learn more. By continuing to use the site, you agree to this use of cookies and data.
  • en France
  • Liste des pays
  • À 7 jours
  • Température de l'eau
  • Carte satellitaire
  • Carte météo
  • Widgets météo
  • user-avatar
    Se connecter

    Météo par heure à Poprad

    Ce jour, 16 Juin, Dimanche

    Heure Température Précipitation Vent Pression Humidité
    00:00 +20°C° 0 mm 1 m/s 700 mmHg 89%
    01:00 +20°C° 0 mm 1 m/s 700 mmHg 89%
    02:00 +19°C° 0.2 mm 1 m/s 700 mmHg 89%
    03:00 +19°C° 0.2 mm 1 m/s 699 mmHg 89%
    04:00 +19°C° 0.2 mm 1 m/s 699 mmHg 89%
    05:00 +21°C° 0.1 mm 1 m/s 700 mmHg 85%
    06:00 +22°C° 0.1 mm 1 m/s 700 mmHg 81%
    07:00 +22°C° 0.1 mm 0 m/s 701 mmHg 76%
    08:00 +26°C° 0.4 mm 1 m/s 701 mmHg 71%
    09:00 +27°C° 0.4 mm 1 m/s 701 mmHg 66%
    10:00 +29°C° 0.4 mm 1 m/s 702 mmHg 60%
    11:00 +28°C° 0.9 mm 1 m/s 702 mmHg 59%
    12:00 +28°C° 0.9 mm 1 m/s 702 mmHg 58%
    13:00 +28°C° 0.9 mm 2 m/s 702 mmHg 58%
    14:00 +26°C° 4.3 mm 2 m/s 701 mmHg 69%
    15:00 +24°C° 4.3 mm 2 m/s 701 mmHg 81%
    16:00 +21°C° 4.3 mm 2 m/s 700 mmHg 92%
    17:00 +20°C° 2.4 mm 2 m/s 701 mmHg 93%
    18:00 +19°C° 2.4 mm 2 m/s 701 mmHg 94%
    19:00 +18°C° 2.4 mm 2 m/s 701 mmHg 95%
    20:00 +18°C° 0.3 mm 1 m/s 701 mmHg 95%
    21:00 +16°C° 0.3 mm 1 m/s 701 mmHg 95%
    22:00 +16°C° 0.3 mm 1 m/s 701 mmHg 96%
    23:00 +15°C° 0 mm 1 m/s 701 mmHg 95%

    Demain, 17 Juin, Lundi

    Heure Température Précipitation Vent Pression Humidité
    00:00 +15°C° 0 mm 1 m/s 702 mmHg 95%
    01:00 +15°C° 0 mm 1 m/s 702 mmHg 95%
    02:00 +15°C° 0 mm 2 m/s 702 mmHg 95%
    03:00 +15°C° 0 mm 2 m/s 702 mmHg 96%
    04:00 +15°C° 0 mm 2 m/s 702 mmHg 97%
    05:00 +16°C° 0 mm 2 m/s 702 mmHg 94%
    06:00 +17°C° 0 mm 2 m/s 703 mmHg 91%
    07:00 +18°C° 0 mm 3 m/s 703 mmHg 89%
    08:00 +19°C° 0 mm 3 m/s 703 mmHg 78%
    09:00 +20°C° 0 mm 3 m/s 704 mmHg 68%
    10:00 +22°C° 0 mm 3 m/s 704 mmHg 58%
    11:00 +22°C° 0 mm 3 m/s 704 mmHg 55%
    12:00 +24°C° 0 mm 3 m/s 704 mmHg 52%
    13:00 +24°C° 0 mm 3 m/s 703 mmHg 48%
    14:00 +24°C° 0 mm 3 m/s 703 mmHg 52%
    15:00 +22°C° 0 mm 3 m/s 703 mmHg 55%
    16:00 +22°C° 0 mm 3 m/s 703 mmHg 59%
    17:00 +20°C° 0 mm 3 m/s 702 mmHg 67%
    18:00 +19°C° 0 mm 2 m/s 702 mmHg 75%
    19:00 +18°C° 0 mm 2 m/s 702 mmHg 82%
    20:00 +17°C° 0 mm 2 m/s 702 mmHg 86%
    21:00 +16°C° 0 mm 2 m/s 702 mmHg 89%
    22:00 +15°C° 0 mm 1 m/s 702 mmHg 92%
    23:00 +15°C° 0 mm 1 m/s 702 mmHg 93%

    Après-demain, 18 Juin, Mardi

    Heure Température Précipitation Vent Pression Humidité
    00:00 +15°C° 0 mm 1 m/s 702 mmHg 94%
    01:00 +15°C° 0 mm 1 m/s 702 mmHg 95%
    02:00 +14°C° 0 mm 1 m/s 702 mmHg 95%
    03:00 +14°C° 0 mm 1 m/s 702 mmHg 95%
    04:00 +14°C° 0 mm 1 m/s 702 mmHg 96%
    05:00 +15°C° 0 mm 1 m/s 702 mmHg 91%
    06:00 +16°C° 0 mm 1 m/s 702 mmHg 87%
    07:00 +17°C° 0 mm 2 m/s 702 mmHg 83%
    08:00 +19°C° 0 mm 1 m/s 702 mmHg 82%
    09:00 +20°C° 0 mm 1 m/s 702 mmHg 82%
    10:00 +20°C° 0 mm 1 m/s 702 mmHg 81%
    11:00 +22°C° 0.1 mm 1 m/s 702 mmHg 78%
    12:00 +23°C° 0.1 mm 1 m/s 702 mmHg 75%
    13:00 +24°C° 0.1 mm 1 m/s 702 mmHg 72%
    14:00 +24°C° 1.5 mm 1 m/s 702 mmHg 77%
    15:00 +23°C° 1.5 mm 1 m/s 701 mmHg 81%
    16:00 +23°C° 1.5 mm 1 m/s 701 mmHg 85%
    17:00 +22°C° 1.3 mm 1 m/s 701 mmHg 88%
    18:00 +21°C° 1.3 mm 1 m/s 701 mmHg 90%
    19:00 +18°C° 1.3 mm 0 m/s 701 mmHg 93%
    20:00 +20°C° 0.4 mm 1 m/s 701 mmHg 93%
    21:00 +19°C° 0.4 mm 1 m/s 701 mmHg 93%
    22:00 +18°C° 0.4 mm 1 m/s 701 mmHg 93%
    23:00 +18°C° 0 mm 1 m/s 700 mmHg 92%

    19 Juin, Mercredi

    Heure Température Précipitation Vent Pression Humidité
    00:00 +18°C° 0 mm 1 m/s 700 mmHg 92%
    01:00 +18°C° 0 mm 1 m/s 700 mmHg 91%
    02:00 +18°C° 0 mm 1 m/s 700 mmHg 91%
    03:00 +16°C° 0 mm 1 m/s 700 mmHg 90%
    04:00 +16°C° 0 mm 1 m/s 700 mmHg 90%
    05:00 +19°C° 0.1 mm 1 m/s 700 mmHg 88%
    06:00 +20°C° 0.1 mm 1 m/s 700 mmHg 86%
    07:00 +22°C° 0.1 mm 1 m/s 701 mmHg 84%
    08:00 +23°C° 1 mm 1 m/s 701 mmHg 81%
    09:00 +24°C° 1 mm 1 m/s 701 mmHg 79%
    10:00 +25°C° 1 mm 2 m/s 701 mmHg 76%
    11:00 +25°C° 1.4 mm 1 m/s 701 mmHg 77%
    12:00 +25°C° 1.4 mm 1 m/s 700 mmHg 78%
    13:00 +24°C° 1.4 mm 1 m/s 700 mmHg 80%
    14:00 +25°C° 0.9 mm 1 m/s 700 mmHg 78%
    15:00 +25°C° 0.9 mm 1 m/s 700 mmHg 76%
    16:00 +25°C° 0.9 mm 1 m/s 700 mmHg 75%
    17:00 +24°C° 1.7 mm 1 m/s 700 mmHg 79%
    18:00 +23°C° 1.7 mm 1 m/s 699 mmHg 83%
    19:00 +19°C° 1.7 mm 0 m/s 699 mmHg 88%
    20:00 +18°C° 0.6 mm 0 m/s 699 mmHg 88%
    21:00 +20°C° 0.6 mm 1 m/s 699 mmHg 89%
    22:00 +19°C° 0.6 mm 1 m/s 699 mmHg 89%
    23:00 +18°C° 0.1 mm 1 m/s 699 mmHg 90%

    20 Juin, Jeudi

    Heure Température Précipitation Vent Pression Humidité
    00:00 +18°C° 0.1 mm 1 m/s 699 mmHg 91%
    01:00 +18°C° 0.1 mm 1 m/s 698 mmHg 91%
    02:00 +18°C° 0.1 mm 1 m/s 698 mmHg 92%
    03:00 +18°C° 0.1 mm 1 m/s 699 mmHg 92%
    04:00 +18°C° 0.1 mm 1 m/s 699 mmHg 93%
    05:00 +19°C° 0.5 mm 1 m/s 699 mmHg 91%
    06:00 +20°C° 0.5 mm 1 m/s 699 mmHg 90%
    07:00 +22°C° 0.5 mm 1 m/s 700 mmHg 89%
    08:00 +22°C° 1.3 mm 1 m/s 700 mmHg 86%
    09:00 +23°C° 1.3 mm 1 m/s 700 mmHg 83%
    10:00 +23°C° 1.3 mm 2 m/s 700 mmHg 80%
    11:00 +23°C° 1.1 mm 2 m/s 700 mmHg 80%
    12:00 +23°C° 1.1 mm 2 m/s 700 mmHg 79%
    13:00 +24°C° 1.1 mm 2 m/s 700 mmHg 78%
    14:00 +23°C° 0.9 mm 2 m/s 700 mmHg 80%
    15:00 +23°C° 0.9 mm 1 m/s 700 mmHg 83%
    16:00 +22°C° 0.9 mm 1 m/s 700 mmHg 85%
    17:00 +20°C° 0.2 mm 0 m/s 700 mmHg 87%
    18:00 +19°C° 0.2 mm 0 m/s 700 mmHg 88%
    19:00 +19°C° 0.2 mm 0 m/s 700 mmHg 90%
    20:00 +18°C° 0.2 mm 0 m/s 700 mmHg 90%
    21:00 +17°C° 0.2 mm 0 m/s 700 mmHg 91%
    22:00 +18°C° 0.2 mm 1 m/s 700 mmHg 91%
    23:00 +18°C° 0 mm 1 m/s 700 mmHg 91%

    21 Juin, Vendredi

    Heure Température Précipitation Vent Pression Humidité
    00:00 +16°C° 0 mm 1 m/s 700 mmHg 90%
    01:00 +16°C° 0 mm 1 m/s 700 mmHg 90%
    02:00 +16°C° 0.1 mm 1 m/s 700 mmHg 90%
    03:00 +16°C° 0.1 mm 1 m/s 700 mmHg 89%
    04:00 +15°C° 0.1 mm 0 m/s 700 mmHg 89%
    05:00 +17°C° 0 mm 0 m/s 701 mmHg 86%
    06:00 +19°C° 0 mm 0 m/s 701 mmHg 82%
    07:00 +21°C° 0 mm 0 m/s 701 mmHg 79%
    08:00 +22°C° 0.4 mm 0 m/s 702 mmHg 76%
    09:00 +25°C° 0.4 mm 1 m/s 702 mmHg 73%
    10:00 +26°C° 0.4 mm 1 m/s 702 mmHg 71%
    11:00 +26°C° 1 mm 2 m/s 702 mmHg 69%
    12:00 +26°C° 1 mm 2 m/s 701 mmHg 68%
    13:00 +27°C° 1 mm 2 m/s 701 mmHg 67%
    14:00 +26°C° 0.9 mm 2 m/s 701 mmHg 69%
    15:00 +26°C° 0.9 mm 2 m/s 701 mmHg 71%
    16:00 +26°C° 0.9 mm 2 m/s 700 mmHg 72%
    17:00 +24°C° 1.3 mm 2 m/s 700 mmHg 78%
    18:00 +23°C° 1.3 mm 1 m/s 700 mmHg 84%
    19:00 +22°C° 1.3 mm 1 m/s 700 mmHg 89%
    20:00 +21°C° 0.4 mm 1 m/s 700 mmHg 90%
    21:00 +20°C° 0.4 mm 1 m/s 700 mmHg 91%
    22:00 +19°C° 0.4 mm 1 m/s 700 mmHg 92%
    23:00 +19°C° 0 mm 1 m/s 700 mmHg 92%
    Voir plus